Miscellaneous Local Product
Issued by NWS North Platte, NE

Home | Current Version | Previous Version | Text Only | Print | Product List | Glossary On
Versions: 1 2 3 4 5 6 7 8 9 10 11 12 13 14 15 16 17 18 19 20 21 22 23 24 25 26 27 28 29 30 31 32 33 34 35 36 37 38 39 40 41 42 43 44 45 46 47 48 49 50
000
AXUS43 KLBF 271410
MISLBF


WESTERN AND NORTH CENTRAL NEBRASKA HOURLY WEATHER ROUNDUP
NATIONAL WEATHER SERVICE NORTH PLATTE NE
900 AM CDT FRI MAY 27 2016

NOTE: "FAIR" INDICATES FEW OR NO CLOUDS BELOW 12,000 FEET WITH NO
SIGNIFICANT WEATHER AND/OR OBSTRUCTIONS TO VISIBILITY.

NOTE: STATIONS NOT REPORTING VARIABLES SUCH AS SKY/WEATHER OR
PRESSURE ARE PROVIDED BY RAWS AND APRS NETWORKS AND ARE NOT UNDER
NATIONAL WEATHER SERVICE QUALITY CONTROL.

...OBSERVATIONS IN AND NEAR THE EASTERN PANHANDLE OF NEBRASKA...

CITY           SKY/WX    TMP DP  RH WIND       PRES   REMARKS
PINE RIDGE     CLOUDY    54  44  69 N6        29.84R
CHADRON        CLOUDY    54  45  71 W7        29.86R
ALLIANCE       CLOUDY    52  47  83 N15       29.83R
SIDNEY         RAIN      51  49  92 N9        29.84S FOG
CRESCENT LAKE    N/A     52  51  97 NE8         N/A
BIG SPRINGS      N/A     55  53  94 NE3         N/A
$$

...OBSERVATIONS IN NORTHERN NEBRASKA AND FAR SOUTHERN SOUTH DAKOTA...

CITY           SKY/WX    TMP DP  RH WIND       PRES   REMARKS
WINNER         CLOUDY    60  54  80 CALM      29.77R
VALENTINE      LGT RAIN  56  53  90 CALM      29.83R
THEDFORD       CLOUDY    58  54  88 NE3       29.82R
AINSWORTH      CLOUDY    57  53  85 N8        29.81R
O`NEILL        PTSUNNY   63  59  87 SE3       29.79R
ORD            CLOUDY    64  56  75 W6        29.77R
BROKEN BOW     MOSUNNY   63  52  67 N3        29.79R
BUTTE            N/A     59  57  94 E7          N/A
CHAMBERS         N/A     69  61  77 E3          N/A
EWING            N/A     65  60  85 SE3         N/A
$$

...OBSERVATIONS IN SOUTHWEST NEBRASKA AND FAR NORTHEAST COLORADO...

CITY           SKY/WX    TMP DP  RH WIND       PRES   REMARKS
WRAY           CLOUDY    54  52  94 NE8       29.76S
IMPERIAL       CLOUDY    55  53  93 N9        29.77F
OGALLALA       CLOUDY    56  53  88 NE8       29.79F
NORTH PLATTE   CLOUDY    58  54  86 NW5       29.79R
MCCOOK         CLOUDY    59  54  83 E3        29.75R
LEXINGTON      CLOUDY    59  55  86 NE10      29.76F
PAXTON           N/A     56  54  93 E3          N/A
STAPLETON        N/A     59  56  88 CALM        N/A
GOTHENBURG       N/A     58  52  80 CALM        N/A
CALLAWAY         N/A     56  55  96 E3          N/A
$$

...OBSERVATIONS IN CENTRAL LINCOLN COUNTY AREA...

CITY           SKY/WX    TMP DP  RH WIND       PRES   REMARKS
N.P. AIRPORT   CLOUDY    58  54  86 NW5       29.79R
N.P. DOWNTOWN    N/A     58  54  86 CALM        N/A
N.P. HILLCREST   N/A     58  55  90 CALM        N/A
$$

...SOME OBSERVATIONS FROM AROUND THE REGION...

CITY           SKY/WX    TMP DP  RH WIND       PRES   REMARKS
DENVER         CLOUDY    50  42  74 N10       29.85R
LARAMIE        CLOUDY    43  36  76 NW12      29.97R
CHEYENNE       CLOUDY    48  36  63 N18G26    29.90R
SCOTTSBLUFF    CLOUDY    54  45  71 N6        29.86R
RAPID CITY     CLOUDY    57  44  62 NE5       29.85S
BISMARCK       SUNNY     57  51  80 NW7       29.84R
PIERRE         CLOUDY    57  50  77 N15       29.76S
SIOUX FALLS    LGT RAIN  62  56  80 S9        29.78R
OMAHA          PTSUNNY   67  60  78 VRB5      29.76R
GRAND ISLAND   CLOUDY    62  56  80 NE13      29.77S
KANSAS CITY    CLOUDY    64  61  90 S10       29.73R
WICHITA        CLOUDY    65  60  84 E16       29.70F
OKLAHOMA CITY  CLOUDY    68  63  84 W6        29.63R
DALLAS         LGT RAIN  68  65  90 SE8       29.77R
AMARILLO       SUNNY     56  41  57 NW14      29.81R
DODGE CITY     CLOUDY    58  58 100 SW14      29.69R FOG
HAYS           CLOUDY    34 N/A N/A S12       29.71R WCI  25
GOODLAND       MOSUNNY   53  51  93 E10       29.73S
$$




USA.gov is the U.S. government's official web portal to all federal, state and local government web resources and services.